Theta_e
309 308 309 310 309 308 308 308 306 306 308 307 305 306 307 306 306 306 309 312 312 317 316 316 317 319 325 324 324 324 325 324 324 325 325 324 323 324 323 320 327 332 339 338 342
308 308 310 310 307 306 307 305 305 304 306 308 305 305 306 305 305 306 306 310 310 315 317 318 314 318 322 324 324 324 325 324 322 323 325 324 325 324 323 322 333 339 340 341 342
308 308 308 306 306 306 306 304 304 305 306 305 305 305 305 303 304 303 304 307 311 312 317 318 316 316 320 323 323 324 325 322 322 322 324 325 325 322 321 320 321 335 342 341 341
308 307 306 308 305 305 303 302 302 304 304 304 304 303 302 303 305 310 305 305 310 310 313 317 317 316 319 321 323 325 323 323 323 324 323 324 324 323 321 321 321 321 339 338 341
307 306 304 305 305 302 299 300 302 303 303 301 301 301 302 304 304 308 308 311 311 312 312 316 316 316 318 320 321 320 322 323 323 323 323 323 323 322 322 322 321 321 333 335 337
307 306 304 306 303 299 300 301 302 301 302 301 301 301 302 303 302 302 307 307 309 311 312 316 316 315 319 321 321 321 320 323 323 322 324 322 321 321 322 322 319 324 333 330 328
306 306 304 303 301 298 300 300 300 300 300 300 301 302 302 302 303 305 305 306 309 312 312 315 315 316 319 318 321 321 320 320 321 321 322 322 322 321 322 320 319 322 333 332 332
305 305 304 301 300 299 300 303 302 303 301 302 302 302 302 304 304 304 305 306 310 313 312 316 316 316 317 318 319 317 319 321 319 319 319 322 324 321 320 320 319 318 319 318 319
304 305 305 301 299 300 301 303 301 301 301 302 303 303 303 305 305 305 304 308 311 313 310 313 316 317 317 315 316 317 319 319 319 318 319 320 318 319 320 321 319 318 318 319 319
303 304 305 301 301 300 300 302 303 304 303 304 305 303 304 305 306 305 306 306 310 312 313 317 315 314 313 315 319 318 317 318 319 318 317 319 316 316 317 319 319 319 319 319 319
300 304 305 302 302 303 302 303 302 303 303 304 303 304 304 305 306 306 306 305 309 313 314 316 315 317 315 314 315 315 316 319 317 317 318 318 317 316 314 314 314 315 316 318 319
295 300 306 302 301 301 300 301 302 303 303 306 306 305 305 307 308 307 305 308 309 312 312 315 315 314 315 315 315 315 316 317 316 315 318 317 317 316 316 314 316 315 316 316 317
295 300 306 304 303 301 300 301 302 303 304 306 306 305 306 307 308 307 308 307 310 312 312 313 315 314 316 317 316 314 315 314 317 314 313 315 315 315 315 314 316 316 316 316 316
296 302 306 306 304 304 302 300 302 304 297 309 307 307 307 306 309 306 309 310 310 313 315 316 315 316 316 317 315 316 313 313 314 316 316 314 318 311 312 312 312 316 316 316 315
298 303 307 307 305 303 303 301 302 305 304 308 307 306 306 308 308 309 309 312 312 315 315 315 315 315 316 316 313 315 311 313 313 314 314 313 314 313 308 310 312 312 314 315 315
300 305 307 306 306 305 305 304 303 299 307 309 308 309 310 310 309 308 311 313 313 314 313 313 312 313 316 315 314 312 312 311 312 313 314 313 313 312 309 309 309 311 313 313 313
302 307 307 306 306 306 305 304 302 305 307 312 314 311 311 311 313 312 312 314 314 315 317 314 313 312 313 316 315 313 311 313 317 316 315 311 312 315 310 307 307 308 309 312 313
304 307 307 307 307 306 306 299 305 309 310 311 313 312 313 312 313 314 314 315 312 313 313 316 316 313 311 314 315 315 311 310 315 315 314 310 314 313 310 309 310 311 310 311 314
304 307 309 307 308 307 306 300 304 301 303 310 312 314 313 312 313 312 313 314 312 310 312 312 313 311 313 313 313 315 312 308 307 305 307 310 309 307 306 307 307 308 310 313 315
307 309 308 307 308 308 300 305 306 307 309 311 312 310 313 313 314 313 314 313 314 312 310 310 314 312 313 313 313 314 312 314 304 308 311 309 309 310 309 308 307 308 310 313 314
308 310 309 307 309 307 299 299 309 310 310 310 311 312 312 313 312 313 313 313 313 312 309 308 309 312 314 315 316 316 316 313 310 306 310 311 309 304 306 306 307 309 311 313 314
307 304 309 309 308 302 300 307 310 310 310 309 309 310 311 311 312 312 312 311 311 312 311 309 309 312 315 311 313 315 316 311 309 309 303 303 308 305 302 304 309 310 312 313 314
307 307 309 310 304 301 307 310 310 310 309 309 309 309 309 310 312 311 310 310 310 309 310 309 306 313 314 312 311 316 314 312 308 305 303 307 310 305 304 307 310 311 312 314 314
305 299 305 307 305 306 306 310 310 310 309 308 308 309 309 310 308 310 310 309 309 309 310 310 308 306 308 309 309 314 315 312 310 310 314 308 310 309 306 306 308 311 313 313 313
302 299 300 298 305 303 305 308 311 311 309 308 309 308 309 310 310 311 310 309 309 309 308 308 307 301 306 311 307 308 310 313 309 314 313 315 311 311 308 306 308 311 312 313 314
298 298 299 300 301 302 305 308 311 309 309 309 308 309 308 309 308 309 309 308 310 307 308 304 303 301 307 308 308 306 307 311 313 313 312 311 310 308 308 307 308 310 311 311 313
297 299 300 299 297 303 302 303 308 307 310 309 309 309 309 309 308 308 309 308 307 306 307 306 302 300 302 304 305 306 306 307 310 309 311 310 312 308 307 305 307 309 308 311 313
Wind_Speed
21 19 21 24 26 26 26 26 25 23 21 19 18 17 14 15 16 19 23 23 28 11 12 20 18 12 13 15 17 7 4 14 12 9 3 4 7 13 16 12 7 6 13 20 22
18 21 23 26 28 27 24 23 20 19 18 15 14 14 11 13 15 23 24 21 19 20 12 20 23 17 8 11 17 13 8 12 9 3 2 4 8 12 13 24 6 11 13 27 24
19 22 24 26 27 24 18 14 12 13 14 8 8 9 11 10 11 24 19 25 16 19 14 16 20 19 8 12 12 5 20 7 8 6 2 6 7 9 13 7 9 7 28 25 23
19 22 26 25 20 15 12 10 8 6 6 2 5 7 7 7 5 9 8 23 14 24 22 16 17 15 7 8 13 10 18 22 7 8 7 4 8 10 8 12 24 19 21 23 22
17 22 23 21 14 12 11 10 8 6 2 1 3 6 7 7 12 7 5 14 16 20 33 18 20 17 7 9 10 5 14 20 15 13 6 2 3 6 24 20 22 19 19 21 22
15 20 19 16 11 10 9 10 9 8 5 2 2 4 6 3 8 13 10 9 10 19 35 23 19 21 10 11 9 9 9 17 16 11 7 2 5 4 23 13 23 9 20 17 18
12 17 12 12 9 9 8 8 8 5 2 1 2 5 7 13 2 4 15 11 6 24 37 26 11 22 9 5 16 8 7 9 13 14 5 6 3 6 37 28 27 9 14 13 14
15 13 13 8 8 6 6 8 9 6 3 3 1 2 5 5 2 9 12 11 6 22 30 27 12 24 5 7 9 5 4 5 7 17 7 14 10 17 21 28 26 14 10 12 14
18 14 13 8 6 7 6 5 6 7 4 3 3 2 4 4 4 3 8 4 9 19 29 23 18 11 3 8 5 2 5 5 8 18 10 13 5 19 33 30 31 26 15 13 13
17 12 11 8 6 7 7 5 1 4 2 2 4 4 5 7 3 4 8 5 5 18 17 18 12 4 2 6 17 14 9 9 9 16 12 20 6 12 23 27 32 36 32 18 15
20 14 8 6 4 5 4 1 1 2 4 2 4 0 9 11 9 7 3 2 2 5 7 17 9 14 8 3 1 6 5 10 3 8 15 12 6 5 14 20 25 34 29 26 19
21 14 7 5 3 4 3 3 6 1 1 6 3 1 4 6 3 5 4 4 4 3 5 7 11 6 7 5 4 6 6 6 2 6 11 6 9 9 15 15 21 20 18 24 19
22 13 7 5 5 1 3 4 4 2 0 5 5 4 3 6 4 3 7 8 2 6 10 6 9 9 8 4 6 2 6 5 5 4 3 3 4 6 12 15 22 22 18 14 20
20 11 7 4 5 3 2 3 2 2 3 5 6 3 5 3 4 9 5 3 2 14 14 4 9 9 8 4 5 3 3 5 6 6 4 5 4 6 7 12 9 28 27 23 18
16 9 6 2 3 3 1 3 3 1 5 7 5 7 5 2 5 2 2 5 2 8 4 1 7 9 6 5 5 2 3 5 1 3 2 2 1 5 1 7 16 20 29 26 23
14 5 5 4 2 2 4 3 2 5 3 4 3 4 3 6 5 1 2 6 10 7 11 5 5 4 2 3 4 5 6 7 5 3 3 5 5 5 6 7 5 19 29 24 25
11 2 4 3 3 1 2 0 4 6 3 1 3 2 4 3 2 1 2 4 4 5 9 6 3 2 3 5 3 3 5 2 1 1 4 2 4 11 6 6 6 8 18 25 26
5 1 5 4 3 0 1 3 8 2 3 2 3 5 3 6 3 4 2 3 2 9 5 3 7 1 4 3 4 3 4 5 6 4 3 3 8 6 7 8 15 18 18 25 27
1 1 5 7 2 2 2 4 6 5 4 4 4 2 2 2 1 2 3 1 3 1 5 5 2 2 2 2 2 3 2 3 5 3 3 5 7 8 8 7 5 11 20 28 27
1 3 5 7 3 4 3 3 1 3 2 1 0 4 4 4 3 2 1 2 2 1 1 3 6 1 2 4 1 3 2 2 3 2 4 4 5 7 4 8 4 8 22 28 24
1 2 5 5 4 2 2 4 2 4 3 1 3 1 5 7 6 5 7 3 3 3 7 4 3 2 5 6 8 3 2 3 3 4 4 2 5 5 5 8 7 9 25 26 23
0 2 4 5 2 2 1 3 2 1 2 2 2 2 2 4 2 2 5 2 6 10 6 3 4 4 3 1 4 7 5 7 4 4 1 2 6 2 6 7 12 15 24 24 21
1 1 4 6 3 3 5 3 1 2 0 2 2 2 2 2 3 2 2 1 5 6 7 6 1 3 2 2 2 5 5 3 3 3 6 5 5 3 4 2 12 17 21 23 21
1 1 3 4 3 0 3 3 3 1 1 2 2 2 1 2 4 4 2 1 2 3 4 7 3 5 7 5 4 6 12 10 6 4 6 7 5 5 5 5 9 19 24 23 22
2 1 1 1 1 2 2 2 3 1 1 2 2 3 2 1 2 3 2 2 3 4 4 4 5 3 5 2 4 5 6 14 10 15 10 8 15 11 8 9 19 21 20 19 21
0 3 3 3 3 2 2 1 3 5 3 2 1 4 2 3 4 5 5 4 4 1 3 1 1 2 2 1 1 3 6 10 19 17 12 9 15 6 9 11 13 23 23 22 23
4 1 1 3 3 2 1 3 4 7 2 6 2 2 2 1 1 4 6 4 5 7 4 3 4 3 4 4 4 7 8 12 7 7 10 9 17 4 4 7 17 26 24 24 23
Wind_Direction
341 337 330 322 318 312 310 303 298 281 265 257 251 243 252 255 255 243 234 233 214 183 211 203 205 193 195 190 180 183 175 209 207 200 195 44 15 354 355 347 304 167 157 170 162
332 337 329 326 320 316 308 307 302 288 270 246 234 237 250 260 255 255 237 235 219 204 214 199 197 200 204 192 179 205 193 217 193 184 138 84 46 1 359 332 333 109 141 163 170
342 335 331 333 329 325 318 315 318 312 273 262 220 228 246 263 272 259 235 228 215 216 218 205 204 196 212 195 191 217 214 186 223 203 43 350 20 14 355 328 353 307 155 166 174
345 335 332 343 345 348 356 352 4 38 37 102 212 244 247 220 218 40 206 213 210 216 216 209 197 183 205 187 185 179 231 202 129 171 232 286 317 345 344 272 311 312 172 171 179
347 336 342 356 7 18 20 18 20 22 32 307 219 231 220 215 239 171 111 179 212 212 215 209 184 188 192 181 167 178 179 194 151 156 189 145 294 334 298 291 313 294 191 184 188
349 338 346 3 15 26 24 26 16 1 339 326 233 228 216 245 259 248 242 192 242 221 210 204 196 187 195 179 174 172 148 157 150 155 147 148 267 3 276 278 326 230 191 181 179
340 338 350 360 6 9 18 3 350 344 28 344 222 208 232 250 298 274 225 273 243 213 207 195 187 186 180 140 176 165 85 92 171 178 161 180 308 228 253 275 287 241 192 191 183
340 338 343 340 344 356 2 4 356 336 275 329 322 235 252 347 250 262 196 293 246 202 203 189 188 190 185 149 141 96 85 134 181 156 194 148 234 228 262 269 270 263 223 193 178
339 337 336 325 314 327 333 356 25 38 62 83 44 300 313 94 94 224 207 267 180 181 195 220 185 192 145 122 86 185 163 157 159 185 142 171 208 201 222 246 268 265 246 223 209
340 337 332 336 315 320 311 304 328 37 60 24 359 331 12 334 32 167 188 225 169 170 171 180 173 148 96 156 185 182 172 183 167 195 186 196 221 175 201 210 238 257 259 231 223
342 336 323 323 336 336 333 190 219 294 37 344 317 237 282 324 138 166 187 337 111 127 184 161 159 189 167 148 104 125 101 176 155 178 186 209 188 242 191 205 223 240 239 235 225
341 335 316 286 342 22 41 90 83 78 330 8 354 237 295 3 107 101 140 85 63 205 127 147 179 155 131 118 115 143 132 174 126 152 179 170 213 207 231 231 232 233 238 232 227
342 336 315 269 264 107 108 105 80 356 337 322 12 35 36 61 63 80 118 105 162 225 182 165 142 141 145 97 108 31 140 162 160 104 46 113 253 195 239 240 246 249 245 241 224
343 342 320 309 251 246 206 193 327 354 76 352 340 31 11 111 88 134 72 140 190 165 177 97 143 142 123 125 108 85 195 157 125 148 191 171 266 236 226 238 237 245 244 239 229
347 339 318 306 273 254 254 238 277 229 55 345 331 314 328 72 128 64 360 177 199 133 120 119 132 136 140 158 126 187 151 172 109 116 117 256 210 247 228 241 235 237 240 242 234
347 345 336 331 295 266 303 261 267 48 26 339 314 321 321 40 72 83 260 147 115 88 75 80 79 61 124 56 137 131 82 51 55 88 263 198 182 236 201 218 224 232 238 223 206
341 24 6 346 359 301 332 75 36 79 180 318 34 108 58 322 65 177 127 101 128 116 105 48 19 39 35 95 53 83 87 48 50 262 219 229 209 257 246 242 236 243 233 205 195
334 121 19 14 34 17 339 26 66 339 198 161 167 89 59 14 20 26 114 103 36 113 92 140 159 78 344 86 174 142 159 150 190 194 226 127 241 242 239 254 250 257 237 193 186
313 200 3 359 15 10 334 49 184 202 185 168 164 140 116 76 26 64 40 73 192 95 121 127 100 86 17 46 53 154 165 186 107 24 56 225 292 295 254 267 245 215 191 182 179
283 194 22 355 359 337 83 186 167 187 268 284 19 178 131 144 146 115 11 263 154 83 48 151 113 55 113 48 3 78 270 75 357 140 239 268 271 245 279 270 237 181 180 183 182
196 161 355 9 2 355 115 227 266 240 201 260 306 332 134 164 177 180 183 181 173 111 65 119 77 110 133 211 197 160 204 204 148 156 186 256 257 219 260 264 212 191 184 184 186
242 60 352 358 41 91 120 209 212 196 182 298 276 327 51 139 147 155 179 199 174 145 133 179 115 159 184 308 259 224 212 181 158 226 211 153 269 259 282 260 186 188 190 189 191
46 63 15 12 68 337 312 312 319 7 322 336 315 26 354 92 96 86 92 4 156 148 156 176 161 115 137 301 273 219 194 213 116 73 197 163 262 331 358 167 192 183 193 195 201
342 42 53 69 86 141 25 318 300 179 285 318 299 322 7 84 50 137 112 357 65 115 146 126 132 160 192 218 139 190 207 203 187 200 219 222 274 290 302 226 208 197 194 205 206
45 134 145 261 55 22 240 319 278 10 136 41 353 38 334 56 69 121 126 123 57 125 79 137 193 157 237 215 152 196 204 206 208 227 209 248 231 247 244 221 207 209 210 200 200
352 156 157 181 263 224 347 335 40 335 10 2 49 323 275 171 199 198 143 185 185 102 113 28 188 123 331 346 10 284 248 217 224 235 252 267 272 226 258 214 215 204 206 207 210
28 42 277 341 314 143 53 331 40 344 91 85 322 333 23 81 13 323 188 206 172 153 147 123 130 84 268 344 323 293 223 209 209 206 217 203 246 192 227 222 221 214 213 216 219